Torna al catalogo

ONEWEB-0666

AttivoComunicazioniPO
NORAD 55826·PAYLOAD·🇬🇧 United Kingdom

Lanciato Mar 9, 2023 da Cape Canaveral Space Force Station

Loading…

Prossimi Passaggi (prossime 24 ore)

TLE

AggiornatoSource: CelesTrak SupGP

Epoca: Sep 14, 2026, 15:51 UTC

1 55826C 23029AG  26257.66058287 -.00002865  00000+0 -70548-2 0  2571
2 55826  87.9131 256.6153 0001513 106.9721 289.2997 13.20775595    12

Traccia ONEWEB-0666 in tempo reale con AllMySat

Download on the App Store